SCP
0 0 0 0 0 0 0 0 0 0 0 0 0 0 -0 -0 -0 0 0 0 0 0 0 0 0 0 0 0 0 0 0 0 0 0 0 0 0 0 0 0 0 0 0 0
0 0 0 0 0 0 0 0 0 0 0 0 0 0 0 -0 -0 0 0 0 0 0 0 0 0 0 0 0 0 0 0 0 0 0 0 0 0 0 0 0 0 0 0 0
0 0 0 0 0 0 0 0 0 0 0 0 0 0 0 0 0 0 0 0 0 0 0 0 0 0 0 0 0 0 0 0 0 0 0 0 0 0 0 0 0 0 0 0
0 0 0 0 0 0 0 0 0 0 0 0 0 0 0 0 0 0 0 0 0 0 0 0 0 0 0 0 0 0 0 0 0 0 0 0 0 0 0 0 0 0 0 0
0 0 0 0 0 0 0 0 0 0 0 0 0 0 0 0 0 0 0 0 0 0 0 0 0 0 0 0 0 0 0 0 0 0 0 0 0 0 0 0 0 0 0 0
0 0 0 0 0 0 0 0 0 0 0 0 0 0 0 0 0 0 0 0 0 0 0 0 0 0 0 0 0 0 0 0 0 0 0 0 0 0 0 0 0 0 0 0
0 0 0 0 0 0 0 0 0 0 0 0 0 0 0 0 0 0 0 0 0 0 0 0 0 0 0 0 0 0 0 0 -0 0 0 0 0 0 0 0 0 0 0 0
0 0 0 0 0 0 0 0 0 0 0 0 0 0 0 0 0 0 0 0 0 0 0 0 0 0 0 0 0 0 0 0 0 0 0 0 0 0 0 0 0 0 0 0
0 0 0 0 0 0 0 0 0 0 0 0 0 0 0 0 0 0 0 0 0 0 0 0 0 0 0 0 0 0 0 0 0 0 0 0 0 0 0 0 0 0 0 0
0 0 0 0 0 0 0 0 0 0 0 0 0 0 0 0 0 0 0 0 0 0 0 0 0 0 0 0 0 0 0 0 0 0 0 0 0 0 0 0 0 0 0 0
0 0 0 0 0 0 0 0 0 0 0 0 0 0 0 0 0 0 0 0 0 0 0 0 0 0 0 0 0 0 0 0 0 0 0 0 0 0 0 0 0 0 0 0
0 0 0 0 0 0 0 0 0 0 0 0 0 0 0 0 0 0 0 0 0 0 0 0 0 0 0 0 0 0 0 0 0 0 0 0 0 0 0 0 0 0 0 0
0 0 0 0 0 0 0 0 0 0 0 0 0 0 0 0 0 0 0 0 0 0 0 0 0 0 0 0 0 0 0 0 0 0 0 0 0 0 0 0 0 0 0 0
0 0 0 0 0 0 0 0 0 0 0 0 0 0 0 0 0 0 0 0 0 0 0 0 0 0 0 0 0 0 0 0 0 0 0 0 0 0 0 0 0 0 0 0
0 0 0 0 0 0 0 0 0 0 0 0 0 0 0 0 0 0 0 0 0 0 0 0 0 0 0 0 0 0 0 0 0 0 0 0 0 0 0 0 0 0 0 0
0 0 0 0 0 0 0 0 0 0 0 0 0 0 0 0 0 0 0 0 0 0 0 0 0 0 0 0 0 0 0 0 0 0 0 0 0 0 0 0 0 0 0 0
0 0 0 0 0 0 0 0 0 0 0 0 0 0 0 0 0 0 0 0 0 0 0 0 0 0 0 0 0 0 0 0 0 0 0 0 0 0 0 0 0 0 0 0
0 0 0 0 0 0 0 0 0 0 0 0 0 0 0 0 0 0 0 0 0 0 0 0 0 0 0 0 0 0 0 0 0 0 0 0 0 0 0 0 0 0 0 0
0 0 0 0 0 0 0 0 0 0 0 0 0 0 0 0 0 -0 -0 0 0 0 0 0 0 0 0 0 0 0 0 0 0 0 0 0 0 0 0 0 0 0 0 0
0 0 0 0 0 0 0 0 0 0 0 0 0 0 0 0 0 0 0 0 0 0 0 0 0 0 0 0 0 0 0 0 0 0 0 0 0 0 0 0 0 0 0 0
0 0 0 0 0 0 0 0 0 0 0 0 0 0 0 0 0 0 0 0 0 0 0 0 0 0 0 0 0 0 0 0 0 0 0 0 0 0 0 0 0 0 0 0
0 0 0 0 0 0 0 0 0 0 0 0 0 0 0 0 0 0 0 0 0 0 0 0 0 0 0 0 0 0 0 0 0 0 0 0 0 0 0 0 0 0 0 0
0 0 0 0 0 0 0 0 0 0 0 0 0 0 0 0 0 0 0 0 0 0 0 0 0 0 0 0 0 0 0 0 0 0 0 0 0 0 0 0 0 0 0 0
0 0 0 0 0 0 0 0 0 0 0 -0 -0 0 0 0 0 0 0 0 0 0 0 0 0 0 0 0 0 0 0 0 0 0 0 0 0 0 0 0 0 0 0 0
0 0 0 0 0 0 0 -0 0 0 0 0 0 0 0 0 0 0 0 0 0 0 0 0 0 0 0 0 0 0 0 0 0 0 0 0 0 0 0 0 0 0 0 0
0 0 0 0 0 0 0 0 0 0 0 0 0 0 0 0 0 0 0 0 0 0 0 0 0 0 0 0 0 0 0 0 0 0 0 0 0 0 0 0 0 0 0 0
0 0 0 0 0 0 0 0 0 0 0 0 0 0 0 0 0 0 0 0 0 0 0 0 0 0 0 0 0 0 0 0 0 0 0 0 0 0 0 0 0 0 0 0
Wind_Speed
3 2 3 5 8 9 8 6 5 4 3 3 3 5 5 5 6 5 5 4 4 3 3 3 3 2 2 2 2 1 1 0 0 1 1 1 2 2 2 3 4 4 4 5
2 2 2 3 7 9 9 8 7 4 3 2 2 4 4 5 5 5 4 4 3 4 3 3 2 2 2 2 1 1 1 0 1 1 1 2 2 2 3 3 4 4 4 5
3 3 0 4 6 8 7 6 6 7 3 2 2 3 2 4 4 4 4 4 3 3 2 2 2 2 2 1 1 1 1 1 1 1 2 2 2 2 3 4 4 4 5 5
1 3 6 3 0 3 4 2 1 1 1 2 2 2 4 4 4 3 4 3 3 2 2 2 2 2 2 2 1 1 1 1 1 1 2 2 2 3 3 3 4 4 5 6
2 3 3 0 1 0 3 2 1 0 1 2 2 3 4 5 5 4 3 3 3 2 2 2 2 2 2 2 1 1 1 2 2 2 2 3 3 3 3 3 4 4 5 6
2 2 3 0 2 2 2 1 2 1 0 1 1 1 0 4 5 5 4 4 3 3 3 3 2 2 2 2 2 2 2 2 3 2 2 3 4 4 3 3 4 5 6 6
3 2 1 3 3 2 3 2 2 2 2 2 2 2 2 4 5 5 4 4 3 3 3 2 2 2 2 2 2 2 2 3 3 3 3 3 3 3 4 4 5 5 6 6
1 2 2 3 2 2 1 2 4 4 4 4 4 4 4 5 4 4 4 4 4 3 3 3 3 3 2 3 3 3 3 3 3 3 4 4 3 3 3 4 4 5 5 5
2 2 2 2 3 3 4 4 4 4 4 5 4 3 4 4 4 4 4 4 3 3 3 3 3 3 2 3 4 3 3 3 3 4 3 3 3 4 4 3 3 4 4 5
1 1 3 4 4 6 5 5 5 5 4 4 4 3 3 3 3 3 3 3 3 3 3 3 4 4 3 3 4 3 3 3 3 3 4 3 3 2 3 3 4 4 4 5
1 1 2 3 4 4 5 6 6 6 5 4 4 3 3 3 2 2 3 3 3 3 3 3 4 4 4 4 4 4 4 4 3 3 3 4 3 3 3 3 4 5 4 4
1 1 1 2 3 4 5 5 4 4 4 4 3 3 3 2 2 2 2 2 3 3 3 3 4 4 4 5 4 4 4 4 3 3 3 3 4 4 6 6 9 9 9 8
2 3 3 3 4 5 4 4 4 4 3 3 3 3 2 2 2 3 3 3 3 3 3 3 4 4 4 5 5 4 4 4 3 3 3 4 4 4 5 7 8 9 9 10
4 3 3 3 3 4 4 4 4 4 4 3 3 3 2 2 2 3 3 3 3 3 3 4 4 4 5 5 5 5 4 5 5 3 3 3 4 4 4 4 5 5 6 9
5 4 2 2 3 3 3 3 4 3 3 3 3 2 2 2 2 3 3 3 3 3 4 4 4 5 5 5 5 5 4 4 3 3 3 3 4 4 3 4 4 4 4 5
3 3 3 3 3 3 3 3 2 2 2 3 3 3 2 2 2 2 2 3 3 4 4 4 4 5 5 5 5 4 4 8 7 4 4 4 3 3 3 3 3 3 4 4
1 2 2 2 2 2 2 2 2 1 2 2 2 3 3 2 2 3 3 3 3 3 4 4 5 5 5 5 5 4 4 5 8 5 4 3 3 4 3 3 3 3 3 4
1 1 0 0 0 1 2 2 2 2 2 2 2 2 2 2 2 3 4 4 4 4 4 4 4 5 5 5 4 3 4 4 4 4 4 4 4 3 3 3 3 4 3 4
2 2 1 1 1 1 1 2 2 2 2 2 2 2 2 2 3 3 4 4 4 5 5 4 8 6 5 5 6 3 3 4 4 3 3 5 5 3 3 3 3 3 3 3
3 3 2 2 2 1 2 2 2 2 2 2 2 2 3 3 3 4 4 4 4 4 5 6 6 4 4 5 6 3 3 3 3 3 3 3 3 3 3 3 3 3 3 3
3 3 3 3 3 2 2 2 2 2 3 2 2 2 3 4 4 3 3 4 5 5 5 8 5 4 4 4 6 3 3 3 3 3 3 3 3 3 3 3 3 3 3 3
2 2 3 3 3 3 3 2 2 2 3 3 3 3 3 4 4 4 4 4 5 8 6 4 4 6 6 6 3 2 3 3 3 3 3 3 3 3 3 3 3 3 3 3
2 2 3 2 2 3 4 3 3 2 3 3 3 3 3 4 3 3 4 4 4 7 5 4 6 8 8 4 2 2 3 3 3 3 3 3 3 3 3 4 3 3 3 3
3 3 3 2 2 2 3 3 3 2 3 3 3 3 3 3 3 3 3 6 8 8 5 6 8 8 7 3 2 2 3 3 3 3 3 3 3 3 3 3 3 3 3 3
2 2 2 2 2 2 3 3 3 3 2 2 3 3 3 2 3 3 3 4 7 7 5 6 8 8 5 3 2 3 3 3 3 3 3 3 3 3 3 3 3 3 3 3
2 2 2 2 2 2 2 2 2 2 2 3 3 3 2 2 3 3 3 3 4 6 5 3 4 5 3 3 3 3 3 3 4 3 3 3 3 3 3 3 3 3 2 2
2 2 2 2 2 2 2 2 3 3 2 3 3 3 3 3 2 3 3 3 3 3 3 3 2 2 2 3 3 3 3 3 2 2 3 3 3 3 3 3 2 2 2 2
Wind_Direction
277 302 182 197 203 199 202 208 210 238 226 196 161 136 125 114 110 111 115 110 104 96 88 88 85 86 89 93 90 94 105 119 246 283 300 297 292 290 291 288 287 281 284 287
264 283 268 228 210 208 215 222 232 253 284 56 91 102 114 121 122 123 123 112 98 88 83 76 68 68 72 59 53 64 77 8 337 341 329 311 296 295 294 290 288 287 285 288
210 190 216 245 223 209 208 213 213 229 232 92 64 60 100 115 120 128 131 120 105 93 89 79 65 60 45 33 32 35 14 350 353 339 318 306 308 299 286 284 288 289 287 287
167 155 209 222 324 192 192 207 195 160 141 114 115 75 69 80 96 96 101 103 99 89 79 65 53 47 38 36 28 9 357 348 341 329 310 307 304 293 291 290 290 292 293 291
183 201 232 233 3 97 176 205 349 173 99 76 93 75 54 53 68 77 78 81 80 79 80 61 52 41 29 20 15 2 350 341 333 324 310 305 298 293 293 299 299 294 292 291
213 211 216 330 324 319 126 195 4 63 148 139 89 132 105 49 57 61 58 62 61 56 62 54 39 34 27 7 6 353 342 335 323 310 303 299 295 295 296 295 294 297 295 292
220 217 257 354 331 48 136 231 357 54 64 72 68 103 88 64 57 57 56 52 53 54 51 37 29 31 18 4 349 338 340 332 325 320 307 297 297 301 302 303 302 299 297 295
187 197 243 347 49 92 126 46 46 50 59 72 77 72 61 56 51 49 52 49 47 48 35 20 19 30 17 347 333 341 342 333 329 324 317 315 309 306 304 305 302 301 303 304
162 171 80 54 77 60 59 54 51 58 62 75 70 67 60 53 47 42 43 42 39 41 26 13 10 21 7 330 335 343 342 335 327 322 319 315 309 308 310 310 304 304 308 309
105 91 73 67 50 44 49 51 48 60 68 70 67 62 59 56 47 35 34 37 32 31 25 9 5 7 348 330 335 338 332 322 319 319 316 314 309 305 307 304 303 306 308 310
120 79 54 53 48 46 47 50 49 48 51 59 62 60 60 50 36 33 31 25 27 24 11 356 355 353 349 346 350 341 327 318 315 313 311 311 309 299 297 283 294 301 296 298
119 36 63 42 35 47 54 48 45 49 41 35 47 54 53 40 23 22 18 18 19 10 360 349 350 350 348 345 343 335 326 322 316 314 311 310 311 316 316 309 311 308 305 303
48 31 50 54 47 47 51 40 36 43 45 40 34 43 50 33 12 12 11 14 7 353 343 342 345 343 344 343 341 335 323 318 316 316 313 311 312 312 314 321 321 318 319 319
44 50 55 44 45 41 50 49 48 45 42 41 37 34 38 28 9 5 356 348 341 340 339 340 339 337 340 340 335 327 320 315 315 308 304 304 304 303 304 310 316 319 323 324
28 31 47 56 65 57 53 59 57 45 40 30 26 21 18 16 355 342 339 338 341 342 338 339 335 331 336 335 328 321 316 309 306 302 301 301 301 303 305 306 308 313 321 323
11 37 60 63 61 55 49 51 54 31 21 13 8 2 356 354 339 338 342 343 338 329 326 326 322 322 327 327 323 318 311 312 312 309 306 308 310 310 309 310 312 316 319 321
39 49 48 37 27 23 20 20 22 3 354 353 348 344 342 342 343 338 335 337 329 316 315 314 311 317 323 322 317 309 307 309 311 309 309 309 310 310 309 311 311 312 314 320
44 54 24 242 296 336 347 355 355 346 332 328 333 335 332 328 320 317 320 324 325 321 319 316 316 322 320 316 311 305 304 303 303 305 309 310 312 307 306 307 308 309 316 321
39 42 25 14 9 359 320 320 326 331 329 328 326 322 321 317 311 311 315 317 314 310 312 316 318 320 315 311 311 301 299 301 305 309 309 310 312 313 313 312 313 316 317 321
26 22 23 19 16 3 329 325 333 332 325 322 316 317 319 316 315 315 315 305 294 290 303 312 315 314 313 310 310 303 304 307 309 311 309 308 310 313 314 314 316 318 320 322
9 6 8 6 356 350 337 328 328 321 322 327 317 306 304 307 310 308 306 300 302 306 310 311 312 310 309 309 309 310 309 307 307 308 309 309 310 313 317 319 318 318 318 320
353 352 349 348 347 338 338 340 331 319 319 320 316 306 303 305 309 307 292 280 295 309 312 309 310 311 314 313 310 313 308 306 303 304 306 309 313 315 315 315 314 314 318 321
335 333 332 335 331 322 327 328 320 310 303 301 301 300 296 293 293 291 298 303 307 311 314 308 311 314 319 318 317 313 308 305 302 301 302 305 306 309 312 312 311 312 316 320
335 332 329 327 328 324 318 314 312 304 295 293 291 288 286 291 296 290 282 299 310 313 312 311 317 321 323 319 314 307 301 298 298 298 300 302 303 302 303 307 312 317 320 321
328 323 321 323 321 311 308 314 316 310 305 300 297 297 290 280 279 290 295 294 304 313 314 319 324 325 324 318 310 300 296 294 298 300 299 300 301 302 305 308 314 317 320 324
327 323 316 304 290 289 298 305 307 306 310 312 312 312 310 302 294 293 297 299 301 308 311 312 317 320 318 313 303 298 295 299 302 301 301 299 299 300 302 306 310 312 315 316
322 319 319 323 322 315 309 304 300 302 304 300 302 305 305 305 304 305 303 302 305 309 311 311 311 309 307 305 303 300 298 297 297 298 299 296 296 298 302 301 304 309 312 315